Retour au catalogue

STARLINK-30252

ActifCommunicationsVLEO
NORAD 57607·PAYLOAD·🇺🇸 United States

Lancé Aug 11, 2023 depuis Cape Canaveral Space Force Station

Loading…

Prochains Passages (prochaines 24 heures)

TLE

FraisSource: CelesTrak SupGP

Époque: Sep 15, 2026, 02:57 UTC

1 57607C 23119F   26258.12340278 -.00015547  00000+0 -56294-3 0  2581
2 57607  42.9997  76.8196 0001558 274.2228  87.4253 15.27595545    18

Suivez STARLINK-30252 en temps réel avec AllMySat

Download on the App Store